Prairie Du Chien, WI

1:33 PM CST on February 19, 2017 (GMT -0600)
Prairie Du Chien Municipal

Weather History for KPDC - November, 2011

Change the Weather History Date:

Friday, November 25, 2011

  Actual Average Record
Temperature  
Mean Temperature 50 °F -  
Max Temperature 52 °F 41 °F 61 °F (1988)
Min Temperature 47 °F 25 °F 0 °F (1991)
Degree Days  
Heating Degree Days 16    
Moisture  
Dew Point 42 °F    
Average Humidity 74    
Maximum Humidity 88    
Minimum Humidity 63    
Precipitation  
Precipitation 0.00 in - - ()
Sea Level Pressure  
Sea Level Pressure 29.81 in    
Wind  
Wind Speed 7 mph (South)    
Max Wind Speed 15 mph    
Max Gust Speed 21 mph    
Visibility 9 miles    
Events      
Averages and records for this station are not official NWS values.
T = Trace of Precipitation, MM = Missing Value Source: NWS Daily Summary

Daily Weather History Graph

Daily Weather History Graph

Search for Another Location

Airport or City:

Trip Planner

Search our weather history database for the weather conditions in past years. The results will help you decide how hot, cold, wet, or windy it might be!

Date:

Astronomy

Nov. 25, 2011 Rise Set
Actual Time 7:08 AM CST 4:33 PM CST
Civil Twilight 6:37 AM CST 5:04 PM CST
Nautical Twilight 6:02 AM CST 5:39 PM CST
Astronomical Twilight 5:28 AM CST 6:13 PM CST
Moon 7:38 AM CST (11/25) 4:59 PM CST (11/25)
Length of Visible Light 10h 27m
Length of Day
9h 24m
New Moon, 0% of the Moon is Illuminated
Nov 25
New Moon
Dec 2
First Quarter
Dec 10
Full
Dec 17
Last Quarter
Dec 24
New

Hourly Weather History & Observations

Time (CST) Temp. Dew Point Humidity Pressure Visibility Wind Dir Wind Speed Gust Speed Precip Events Conditions
12:15 AM 52.5 °F 40.1 °F 63% 29.86 in 10.0 mi South 9.2 mph - N/A   Clear
1:15 AM 52.0 °F 40.1 °F 64% 29.86 in 10.0 mi Calm Calm - N/A   Clear
1:35 AM 51.6 °F 39.7 °F 64% 29.85 in 10.0 mi South 4.6 mph - N/A   Clear
1:55 AM 51.6 °F 39.6 °F 63% 29.86 in 10.0 mi SSW 3.5 mph - N/A   Clear
2:15 AM 51.1 °F 39.6 °F 65% 29.86 in 10.0 mi South 4.6 mph - N/A   Clear
2:35 AM 51.1 °F 39.6 °F 65% 29.85 in 10.0 mi SSW 6.9 mph - N/A   Clear
2:55 AM 50.9 °F 39.6 °F 65% 29.84 in 10.0 mi SSW 6.9 mph - N/A   Clear
3:15 AM 50.9 °F 39.6 °F 65% 29.84 in 10.0 mi South 9.2 mph - N/A   Clear
3:35 AM 50.7 °F 39.6 °F 66% 29.82 in 10.0 mi South 11.5 mph 16.1 mph N/A   Clear
4:15 AM 50.4 °F 39.7 °F 67% 29.84 in 10.0 mi SSW 13.8 mph 18.4 mph N/A   Clear
4:35 AM 50.0 °F 39.7 °F 68% 29.83 in 10.0 mi South 15.0 mph 19.6 mph N/A   Clear
4:55 AM 50.0 °F 39.7 °F 68% 29.81 in 10.0 mi SSW 8.1 mph 19.6 mph N/A   Clear
5:15 AM 49.6 °F 39.7 °F 69% 29.81 in 10.0 mi South 12.7 mph 20.7 mph N/A   Clear
5:35 AM 49.5 °F 39.7 °F 69% 29.81 in 10.0 mi South 6.9 mph - N/A   Clear
5:55 AM 49.3 °F 40.1 °F 71% 29.81 in 10.0 mi South 3.5 mph - N/A   Clear
6:15 AM 49.1 °F 40.1 °F 71% 29.82 in 10.0 mi South 5.8 mph - N/A   Clear
6:35 AM 48.7 °F 39.9 °F 72% 29.83 in 10.0 mi South 5.8 mph - N/A   Clear
6:55 AM 48.6 °F 39.7 °F 72% 29.82 in 10.0 mi Calm Calm - N/A   Clear
7:15 AM 48.0 °F 39.7 °F 73% 29.82 in 10.0 mi South 3.5 mph - N/A   Clear
7:55 AM 47.8 °F 40.1 °F 75% 29.82 in 10.0 mi South 6.9 mph - N/A   Clear
8:15 AM 48.0 °F 40.1 °F 74% 29.82 in 10.0 mi South 4.6 mph - N/A   Clear
8:35 AM 48.6 °F 40.5 °F 74% 29.81 in 10.0 mi South 8.1 mph - N/A   Clear
8:55 AM 49.1 °F 40.6 °F 73% 29.82 in 10.0 mi South 5.8 mph 17.3 mph N/A   Clear
9:15 AM 49.1 °F 41.0 °F 74% 29.82 in 10.0 mi South 10.4 mph - N/A   Clear
9:35 AM 49.3 °F 41.4 °F 74% 29.82 in 10.0 mi South 5.8 mph - N/A   Clear
10:15 AM 50.4 °F 42.1 °F 73% 29.82 in 10.0 mi South 6.9 mph - N/A   Scattered Clouds
10:35 AM 51.1 °F 42.4 °F 72% 29.82 in 10.0 mi South 10.4 mph 16.1 mph N/A   Mostly Cloudy
10:55 AM 51.3 °F 42.8 °F 73% 29.81 in 10.0 mi SSW 10.4 mph 16.1 mph N/A   Overcast
11:35 AM 51.6 °F 42.8 °F 72% 29.80 in 10.0 mi South 9.2 mph 16.1 mph N/A   Overcast
11:55 AM 51.4 °F 43.0 °F 73% 29.80 in 10.0 mi South 9.2 mph 17.3 mph N/A   Overcast
12:15 PM 51.1 °F 43.2 °F 74% 29.80 in 10.0 mi SSW 10.4 mph 16.1 mph N/A   Overcast
12:35 PM 50.7 °F 43.0 °F 75% 29.79 in 10.0 mi South 10.4 mph 16.1 mph N/A   Overcast
1:15 PM 50.0 °F 42.8 °F 76% 29.79 in 10.0 mi South 9.2 mph - N/A   Overcast
1:35 PM 49.6 °F 42.8 °F 77% 29.79 in 10.0 mi South 9.2 mph - N/A   Overcast
2:15 PM 49.1 °F 42.8 °F 79% 29.78 in 10.0 mi South 6.9 mph - N/A   Overcast
2:35 PM 49.3 °F 42.8 °F 78% 29.79 in 10.0 mi South 9.2 mph - N/A   Overcast
3:35 PM 49.3 °F 42.8 °F 78% 29.79 in 7.0 mi South 8.1 mph - N/A   Overcast
3:55 PM 49.5 °F 42.8 °F 78% 29.78 in 10.0 mi SSE 6.9 mph - N/A   Overcast
4:15 PM 49.5 °F 43.0 °F 78% 29.78 in 10.0 mi Calm Calm - N/A   Overcast
5:15 PM 48.9 °F 43.7 °F 82% 29.79 in 7.0 mi SSE 4.6 mph - N/A   Overcast
5:55 PM 48.2 °F 44.2 °F 86% 29.80 in 5.0 mi SE 3.5 mph - N/A   Overcast
6:15 PM 48.2 °F 44.6 °F 87% 29.80 in 5.0 mi ESE 4.6 mph - N/A   Overcast
6:35 PM 48.0 °F 44.6 °F 88% 29.79 in 5.0 mi ESE 6.9 mph - N/A   Overcast
6:55 PM 48.2 °F 44.6 °F 87% 29.79 in 5.0 mi SE 3.5 mph - N/A   Overcast
7:35 PM 49.1 °F 45.1 °F 86% 29.79 in 7.0 mi South 6.9 mph - N/A   Overcast
7:55 PM 49.5 °F 45.3 °F 86% 29.79 in 7.0 mi South 4.6 mph - N/A   Overcast
8:15 PM 50.0 °F 45.5 °F 85% 29.79 in 7.0 mi ESE 3.5 mph - N/A   Overcast
8:35 PM 49.8 °F 45.1 °F 84% 29.78 in 7.0 mi East 5.8 mph - N/A   Overcast
8:55 PM 49.5 °F 44.8 °F 84% 29.78 in 7.0 mi ESE 3.5 mph - N/A   Overcast
9:15 PM 49.6 °F 44.8 °F 83% 29.77 in 7.0 mi East 3.5 mph - N/A   Overcast
9:35 PM 49.6 °F 44.8 °F 83% 29.77 in 7.0 mi East 3.5 mph - N/A   Overcast
9:55 PM 50.0 °F 45.0 °F 83% 29.76 in 7.0 mi East 5.8 mph - N/A   Overcast
10:15 PM 50.4 °F 45.1 °F 82% 29.76 in 10.0 mi SE 5.8 mph - N/A   Overcast
10:35 PM 50.5 °F 45.0 °F 81% 29.75 in 7.0 mi East 4.6 mph - N/A   Overcast
10:55 PM 50.0 °F 45.0 °F 83% 29.76 in 7.0 mi Calm Calm - N/A   Overcast
11:15 PM 50.2 °F 45.0 °F 82% 29.75 in 10.0 mi ESE 4.6 mph - N/A   Overcast
11:35 PM 50.5 °F 44.8 °F 81% 29.75 in 10.0 mi ESE 5.8 mph - N/A   Overcast
11:55 PM 50.9 °F 44.2 °F 78% 29.75 in 10.0 mi ESE 4.6 mph - N/A   Overcast